Meteo Giornale » Osservazioni meteo Germania » Oberpfaffenhofen

ore: 21:20 - Osservazioni Meteo Oberpfaffenhofen
Lat. 48° 5' N Lon. 11° 17' E Alt. 600 metri s.l.m.

sereno Europe/Berlin

9 °C

Sereno

Temp. 24 Ore

9 °C

16 °C

Nord

3.7 Km/h

Dew point 8 °C

Umidità 93 %

Visibilità  10 Km

Il sole sorge alle ore 06:53

Il sole tramonta alle ore 19:25

Data e Ora Cielo e Fenomeni T °C DP °C Um. % Pres. hPa Vis. km Vento km/h
Oggi h: 21:20 sereno Sereno 9 8 93 1017 10 N 3.7
Oggi h: 20:50 sereno Sereno 10 9 93 1017 10 N 5.5
Oggi h: 20:20 sereno Sereno 11 10 93 1016 10 N 5.5
Oggi h: 19:50 sereno Sereno 12 10 87 1016 10 N 3.7
Oggi h: 19:20 sereno Sereno 12 11 93 1016 10 N 5.5
Oggi h: 18:50 poco_nuvoloso Poco Nuvoloso 14 10 76 1016 10 N 3.7
Oggi h: 18:20 molto_nuvoloso Molto Nuvoloso 16 9 63 1016 10 N 3.7
Oggi h: 17:50 molto_nuvoloso Molto Nuvoloso 16 9 63 1016 10 N/NE 7.4
Oggi h: 17:20 molto_nuvoloso Molto Nuvoloso 16 9 63 1016 10 N 5.5
Oggi h: 16:50 molto_nuvoloso Molto Nuvoloso 16 9 63 1016 10 NE 9.3
Oggi h: 16:20 molto_nuvoloso Molto Nuvoloso 16 8 58 1016 10 N 9.3
Oggi h: 15:50 molto_nuvoloso Molto Nuvoloso 16 9 63 1016 10 N 3.7
Oggi h: 15:20 molto_nuvoloso Molto Nuvoloso 16 9 63 1017 10 NO 9.3
Oggi h: 14:50 molto_nuvoloso Molto Nuvoloso 16 8 58 1017 10 N 9.3
Oggi h: 14:20 molto_nuvoloso Molto Nuvoloso 16 9 63 1017 10 N 5.5
Oggi h: 13:50 molto_nuvoloso Molto Nuvoloso 16 8 58 1017 10 NO 9.3
Oggi h: 13:20 molto_nuvoloso Molto Nuvoloso 16 9 63 1017 10 N 5.5
Oggi h: 12:50 molto_nuvoloso Molto Nuvoloso 16 10 67 1017 10 N 5.5
Oggi h: 12:20 molto_nuvoloso Molto Nuvoloso 15 10 72 1017 10 N 5.5
Oggi h: 11:50 molto_nuvoloso Molto Nuvoloso 15 11 76 1017 10 N 3.7
Oggi h: 11:20 molto_nuvoloso Molto Nuvoloso 15 11 76 1018 10 N 5.5
Oggi h: 10:50 molto_nuvoloso Molto Nuvoloso 14 11 82 1018 10 N 3.7
Oggi h: 10:20 molto_nuvoloso Molto Nuvoloso 14 12 87 1018 10 N 5.5
Oggi h: 09:50 molto_nuvoloso Molto Nuvoloso 13 12 93 1018 10 N 5.5
Oggi h: 09:20 molto_nuvoloso Molto Nuvoloso 13 11 87 1018 10 SO 7.4
Oggi h: 08:50 nuvoloso Nuvoloso 12 11 93 1018 10 N 5.5
Oggi h: 08:20 nuvoloso Nuvoloso 12 11 93 1018 10 N 3.7
Oggi h: 07:50 molto_nuvoloso Molto Nuvoloso 12 11 93 1018 10 N 5.5
Oggi h: 06:50 molto_nuvoloso Molto Nuvoloso 11 10 93 1017 10 N 5.5
Oggi h: 05:50 coperto Coperto 11 10 93 1017 10 N 5.5
Oggi h: 05:20 coperto Coperto 11 11 100 1017 10 N 5.5
Oggi h: 04:50 coperto Coperto 11 11 100 1018 10 N 5.5
Oggi h: 04:20 coperto Coperto 11 10 93 1017 10 N 3.7
Oggi h: 03:50 poco_nuvoloso Poco Nuvoloso 10 9 93 1017 10 N 5.5
Oggi h: 03:20 nuvoloso Nuvoloso 10 10 100 1018 10 N 5.5
Oggi h: 02:50 nuvoloso Nuvoloso 11 10 93 1018 10 O 7.4
Oggi h: 02:20 molto_nuvoloso Molto Nuvoloso 11 10 93 1018 10 O 7.4
Oggi h: 01:50 coperto Coperto 12 11 93 1018 10 O/NO 9.3
Oggi h: 01:20 molto_nuvoloso Molto Nuvoloso 12 11 93 1018 10 O 7.4
Oggi h: 00:50 coperto Coperto 13 11 87 1018 10 O/NO 7.4
Oggi h: 00:20 coperto Coperto 13 12 93 1018 10 O 7.4
Ieri h: 23:50 molto_nuvoloso Molto Nuvoloso 13 12 93 1018 10 N 5.5
Ieri h: 23:20 coperto Coperto 14 12 87 1018 10 NO 7.4
Ieri h: 22:50 coperto Coperto 14 13 93 1018 10 N/NO 9.3